THY4RC UUWW-LTFM

Flight info

Callsign THY4RC
Flight time 3h 13m
Altitude 38000
Route POKAG3D POKAG N858 VEPIS Y219 LAPKI N869 OSMUS Z369 BRT L856 TOSPO/N0476F380 DCT LUGUG DCT GAWOR DCT ROBTU/N0480F370 DCT KENIN DCT LARMU DCT RUTUV DCT RONBU DCT BUVAK DCT EMO DCT VABUR DCT RIXEN
Aircraft B77W/H-SDE1E2E3FGHIJ2J3J4J5M1RWXY/LB1D1

Departure

Time 2026-05-04 14:37
Airport Vnukovo International Airport (UUWW)

Arrival

Time 2026-05-04 17:51
Airport İstanbul Airport (LTFM)
Time Latitude Longitude Altitude Speed Heading
2026-05-04 14:29 55.60171 37.28042 690 ft 0 kts 39°
2026-05-04 14:30 55.60161 37.28027 681 ft 4 kts 39°
2026-05-04 14:30 55.60142 37.27999 684 ft 4 kts 44°
2026-05-04 14:30 55.60108 37.27929 681 ft 2 kts 53°
2026-05-04 14:31 55.60107 37.27927 681 ft 0 kts 53°
2026-05-04 14:33 55.60108 37.27930 681 ft 3 kts 55°
2026-05-04 14:33 55.60099 37.27994 683 ft 6 kts 118°
2026-05-04 14:33 55.60077 37.28079 686 ft 9 kts 101°
2026-05-04 14:33 55.60078 37.28190 685 ft 9 kts 86°
2026-05-04 14:34 55.60048 37.28274 681 ft 9 kts 162°
2026-05-04 14:34 55.59986 37.28282 685 ft 9 kts 177°
2026-05-04 14:34 55.59931 37.28328 685 ft 9 kts 136°
2026-05-04 14:34 55.59883 37.28409 681 ft 10 kts 131°
2026-05-04 14:35 55.59875 37.28512 687 ft 8 kts 79°
2026-05-04 14:35 55.59903 37.28642 683 ft 12 kts 69°
2026-05-04 14:35 55.59933 37.28778 682 ft 12 kts 68°
2026-05-04 14:35 55.59947 37.28900 687 ft 10 kts 107°
2026-05-04 14:36 55.59889 37.28962 683 ft 11 kts 162°
2026-05-04 14:36 55.59816 37.28980 685 ft 11 kts 205°
2026-05-04 14:36 55.59773 37.28873 680 ft 9 kts 248°
2026-05-04 14:36 55.59740 37.28728 682 ft 29 kts 248°
2026-05-04 14:37 55.59567 37.27958 683 ft 107 kts 248°
2026-05-04 14:37 55.59202 37.26344 683 ft 171 kts 248°
2026-05-04 14:37 55.58715 37.24204 987 ft 198 kts 249°
2026-05-04 14:37 55.58059 37.22075 1676 ft 197 kts 226°
2026-05-04 14:38 55.56991 37.20756 2600 ft 187 kts 225°
2026-05-04 14:38 55.56228 37.18776 2898 ft 207 kts 243°
2026-05-04 14:38 55.55443 37.16498 3386 ft 221 kts 239°
2026-05-04 14:38 55.54873 37.14028 4104 ft 220 kts 266°
2026-05-04 14:39 55.54870 37.11323 4769 ft 223 kts 270°
2026-05-04 14:39 55.54859 37.08577 5597 ft 222 kts 269°
2026-05-04 14:39 55.54993 37.05889 6311 ft 223 kts 292°
2026-05-04 14:40 55.57550 37.02612 7257 ft 264 kts 350°
2026-05-04 14:40 55.59407 37.02547 7753 ft 276 kts 356°
2026-05-04 14:40 55.61342 37.02570 8584 ft 279 kts 356°
2026-05-04 14:40 55.63297 37.02584 9438 ft 280 kts 355°
2026-05-04 14:41 55.65216 37.02141 9868 ft 279 kts 338°
2026-05-04 14:41 55.67026 37.00864 9867 ft 280 kts 332°
2026-05-04 14:41 55.70574 36.98066 9870 ft 276 kts 333°
2026-05-04 14:42 55.74088 36.95427 9908 ft 276 kts 333°
2026-05-04 14:42 55.75859 36.94067 10434 ft 278 kts 333°
2026-05-04 14:42 55.77655 36.92685 11244 ft 282 kts 333°
2026-05-04 14:43 55.79472 36.91288 12137 ft 284 kts 332°
2026-05-04 14:43 55.81101 36.89391 12715 ft 284 kts 310°
2026-05-04 14:43 55.82139 36.86344 13089 ft 298 kts 288°
2026-05-04 14:43 55.82642 36.82700 13733 ft 309 kts 281°
2026-05-04 14:44 55.83076 36.78933 13867 ft 313 kts 281°
2026-05-04 14:44 55.83280 36.75112 13861 ft 310 kts 265°
2026-05-04 14:44 55.83000 36.72613 13973 ft 313 kts 252°
2026-05-04 14:44 55.82115 36.69040 14774 ft 318 kts 245°
2026-05-04 14:45 55.81116 36.65510 15733 ft 320 kts 245°
2026-05-04 14:45 55.79769 36.60787 16967 ft 326 kts 245°
2026-05-04 14:45 55.78742 36.57150 17868 ft 331 kts 245°
2026-05-04 14:45 55.78042 36.54656 18430 ft 335 kts 245°
2026-05-04 14:46 55.77010 36.50974 19214 ft 339 kts 245°
2026-05-04 14:46 55.76018 36.47144 19971 ft 343 kts 251°
2026-05-04 14:46 55.75301 36.42962 20223 ft 365 kts 257°
2026-05-04 14:46 55.74709 36.38432 20387 ft 388 kts 258°
2026-05-04 14:47 55.74123 36.33636 20722 ft 404 kts 258°
2026-05-04 14:47 55.73516 36.28750 21284 ft 414 kts 258°
2026-05-04 14:47 55.72871 36.23748 21983 ft 419 kts 257°
2026-05-04 14:47 55.72193 36.18671 22748 ft 422 kts 257°
2026-05-04 14:48 55.71497 36.13586 23508 ft 426 kts 257°
2026-05-04 14:48 55.70849 36.08910 24041 ft 430 kts 257°
2026-05-04 14:48 55.70104 36.03577 24645 ft 434 kts 257°
2026-05-04 14:48 55.69371 35.98360 25234 ft 438 kts 257°
2026-05-04 14:49 55.68631 35.93101 25813 ft 441 kts 257°
2026-05-04 14:49 55.67879 35.87778 26357 ft 445 kts 257°
2026-05-04 14:49 55.67134 35.82507 26853 ft 449 kts 256°
2026-05-04 14:49 55.66369 35.77109 27379 ft 453 kts 256°
2026-05-04 14:50 55.65593 35.71684 27921 ft 455 kts 256°
2026-05-04 14:50 55.64809 35.66214 28416 ft 459 kts 256°
2026-05-04 14:50 55.64022 35.60718 28871 ft 462 kts 256°
2026-05-04 14:50 55.63230 35.55173 29302 ft 465 kts 257°
2026-05-04 14:51 55.62663 35.49594 29672 ft 468 kts 263°
2026-05-04 14:51 55.62345 35.43832 30048 ft 470 kts 266°
2026-05-04 14:51 55.62111 35.38058 30469 ft 470 kts 266°
2026-05-04 14:51 55.61864 35.32288 30969 ft 468 kts 266°
2026-05-04 14:52 55.61578 35.26561 31476 ft 466 kts 265°
2026-05-04 14:52 55.61257 35.20870 31934 ft 465 kts 265°
2026-05-04 14:52 55.60925 35.15260 32368 ft 464 kts 265°
2026-05-04 14:52 55.60584 35.09582 32800 ft 463 kts 265°
2026-05-04 14:53 55.60246 35.03915 33185 ft 463 kts 265°
2026-05-04 14:53 55.59910 34.98236 33596 ft 463 kts 265°
2026-05-04 14:53 55.59576 34.92576 34017 ft 461 kts 265°
2026-05-04 14:53 55.59241 34.86936 34369 ft 460 kts 265°
2026-05-04 14:54 55.58905 34.81308 34698 ft 460 kts 265°
2026-05-04 14:54 55.58570 34.75744 35019 ft 460 kts 265°
2026-05-04 14:54 55.58228 34.70123 35354 ft 459 kts 265°
2026-05-04 14:54 55.57882 34.64487 35666 ft 459 kts 265°
2026-05-04 14:55 55.57534 34.58844 35771 ft 463 kts 265°
2026-05-04 14:55 55.57184 34.53238 35819 ft 465 kts 265°
2026-05-04 14:55 55.56471 34.41923 35824 ft 459 kts 265°
2026-05-04 14:56 55.55756 34.30747 35844 ft 457 kts 265°
2026-05-04 14:56 55.55038 34.19664 35831 ft 456 kts 264°
2026-05-04 14:57 55.54301 34.08554 35840 ft 455 kts 264°
2026-05-04 14:57 55.53559 33.97410 35831 ft 455 kts 264°
2026-05-04 14:58 55.52810 33.86298 35835 ft 456 kts 264°
2026-05-04 14:58 55.52052 33.75216 35833 ft 457 kts 264°
2026-05-04 14:59 55.51233 33.64067 35837 ft 458 kts 261°
2026-05-04 15:00 55.48929 33.47753 35831 ft 458 kts 256°
2026-05-04 15:00 55.47309 33.36886 35830 ft 457 kts 257°
2026-05-04 15:01 55.44910 33.20666 35834 ft 457 kts 257°
2026-05-04 15:01 55.43303 33.09831 35831 ft 457 kts 256°
2026-05-04 15:02 55.41689 32.99017 35831 ft 456 kts 256°
2026-05-04 15:02 55.40063 32.88205 35828 ft 456 kts 256°
2026-05-04 15:03 55.38436 32.77455 35823 ft 457 kts 256°
2026-05-04 15:03 55.36788 32.66651 35840 ft 456 kts 256°
2026-05-04 15:04 55.35134 32.55864 35832 ft 456 kts 256°
2026-05-04 15:04 55.33482 32.45160 35835 ft 456 kts 256°
2026-05-04 15:05 55.31812 32.34415 35839 ft 455 kts 256°
2026-05-04 15:05 55.30132 32.23678 35837 ft 455 kts 256°
2026-05-04 15:06 55.28453 32.13012 35827 ft 455 kts 255°
2026-05-04 15:07 55.25902 31.96941 35850 ft 455 kts 255°
2026-05-04 15:07 55.24191 31.86238 35849 ft 455 kts 255°
2026-05-04 15:08 55.22479 31.75606 35840 ft 455 kts 255°
2026-05-04 15:08 55.20751 31.64938 35842 ft 454 kts 255°
2026-05-04 15:09 55.19015 31.54289 35842 ft 453 kts 255°
2026-05-04 15:09 55.17284 31.43731 35827 ft 453 kts 255°
2026-05-04 15:10 55.14656 31.27828 35854 ft 453 kts 255°
2026-05-04 15:11 55.12006 31.11922 35846 ft 455 kts 255°
2026-05-04 15:11 55.10227 31.01378 35844 ft 455 kts 253°
2026-05-04 15:12 55.07798 30.91183 35846 ft 455 kts 245°
2026-05-04 15:12 55.05032 30.81243 35828 ft 455 kts 245°
2026-05-04 15:13 55.02278 30.71301 35847 ft 455 kts 245°
2026-05-04 15:13 54.99547 30.61407 35846 ft 455 kts 245°
2026-05-04 15:14 54.96800 30.51469 35827 ft 455 kts 245°
2026-05-04 15:14 54.94058 30.41599 35828 ft 455 kts 245°
2026-05-04 15:15 54.91292 30.31683 35847 ft 455 kts 245°
2026-05-04 15:15 54.88518 30.21784 35850 ft 455 kts 245°
2026-05-04 15:16 54.84339 30.06940 35849 ft 455 kts 245°
2026-05-04 15:17 54.80165 29.92243 35850 ft 453 kts 245°
2026-05-04 15:17 54.75975 29.77546 35849 ft 452 kts 244°
2026-05-04 15:18 54.73196 29.67851 35864 ft 452 kts 244°
2026-05-04 15:19 54.68980 29.53213 35868 ft 453 kts 244°
2026-05-04 15:19 54.64811 29.38521 35867 ft 454 kts 245°
2026-05-04 15:20 54.62111 29.28721 35874 ft 454 kts 245°
2026-05-04 15:20 54.59374 29.18858 35869 ft 455 kts 245°
2026-05-04 15:21 54.56637 29.09077 35848 ft 455 kts 245°
2026-05-04 15:22 54.52492 28.94356 35869 ft 454 kts 245°
2026-05-04 15:22 54.48365 28.79770 35866 ft 453 kts 245°
2026-05-04 15:23 54.45783 28.69875 35864 ft 452 kts 247°
2026-05-04 15:23 54.43308 28.59920 35869 ft 453 kts 247°
2026-05-04 15:24 54.38280 28.40106 35866 ft 454 kts 246°
2026-05-04 15:25 54.35716 28.30159 35878 ft 455 kts 246°
2026-05-04 15:26 54.31863 28.15295 35869 ft 454 kts 246°
2026-05-04 15:26 54.28000 28.00483 35867 ft 453 kts 246°
2026-05-04 15:27 54.24139 27.85770 35869 ft 453 kts 246°
2026-05-04 15:28 54.20247 27.71037 35869 ft 453 kts 246°
2026-05-04 15:29 54.16352 27.56387 35859 ft 453 kts 246°
2026-05-04 15:30 54.06557 27.22527 35883 ft 455 kts 240°
2026-05-04 15:31 54.01824 27.08574 35884 ft 455 kts 240°
2026-05-04 15:32 53.93941 26.85308 35888 ft 455 kts 240°
2026-05-04 15:34 53.85290 26.65055 35889 ft 457 kts 226°
2026-05-04 15:34 53.78486 26.53784 35887 ft 459 kts 226°
2026-05-04 15:35 53.73922 26.46199 36016 ft 462 kts 226°
2026-05-04 15:35 53.71635 26.42393 36365 ft 460 kts 226°
2026-05-04 15:35 53.69359 26.38607 36754 ft 458 kts 226°
2026-05-04 15:36 53.64834 26.31093 37495 ft 454 kts 226°
2026-05-04 15:36 53.62582 26.27360 37727 ft 456 kts 226°
2026-05-04 15:36 53.60316 26.23611 37846 ft 457 kts 226°
2026-05-04 15:37 53.55785 26.16134 37877 ft 458 kts 225°
2026-05-04 15:37 53.51241 26.08661 37894 ft 455 kts 225°
2026-05-04 15:38 53.46712 26.01237 37893 ft 454 kts 225°
2026-05-04 15:38 53.42214 25.93885 37884 ft 453 kts 225°
2026-05-04 15:39 53.37681 25.86500 37898 ft 454 kts 225°
2026-05-04 15:40 53.30843 25.75403 37897 ft 457 kts 225°
2026-05-04 15:40 53.26259 25.67993 37902 ft 458 kts 225°
2026-05-04 15:41 53.21686 25.60624 37901 ft 459 kts 225°
2026-05-04 15:41 53.17078 25.53221 37903 ft 460 kts 225°
2026-05-04 15:42 53.12462 25.45829 37904 ft 460 kts 225°
2026-05-04 15:42 53.07868 25.38497 37899 ft 460 kts 225°
2026-05-04 15:43 53.03238 25.31130 37893 ft 459 kts 225°
2026-05-04 15:43 52.98643 25.23840 37901 ft 458 kts 225°
2026-05-04 15:44 52.94023 25.16533 37907 ft 459 kts 225°
2026-05-04 15:44 52.89388 25.09224 37910 ft 459 kts 225°
2026-05-04 15:45 52.84747 25.01930 37899 ft 460 kts 225°
2026-05-04 15:45 52.80127 24.94692 37907 ft 461 kts 225°
2026-05-04 15:46 52.75459 24.87403 37909 ft 462 kts 225°
2026-05-04 15:46 52.70780 24.80118 37904 ft 462 kts 225°
2026-05-04 15:47 52.66118 24.72881 37908 ft 462 kts 225°
2026-05-04 15:47 52.61429 24.65621 37904 ft 462 kts 224°
2026-05-04 15:48 52.56751 24.58403 37915 ft 462 kts 224°
2026-05-04 15:48 52.49734 24.47617 37913 ft 462 kts 224°
2026-05-04 15:49 52.45030 24.40415 37906 ft 463 kts 224°
2026-05-04 15:49 52.40308 24.33208 37937 ft 463 kts 224°
2026-05-04 15:50 52.35584 24.26018 37918 ft 463 kts 224°
2026-05-04 15:50 52.30893 24.18902 37921 ft 463 kts 224°
2026-05-04 15:51 52.26165 24.11749 37934 ft 463 kts 224°
2026-05-04 15:51 52.21429 24.04606 37949 ft 464 kts 224°
2026-05-04 15:52 52.16679 23.97460 37950 ft 464 kts 224°
2026-05-04 15:52 52.11962 23.90234 37945 ft 464 kts 228°
2026-05-04 15:53 52.08003 23.82063 37949 ft 462 kts 238°
2026-05-04 15:53 52.04451 23.73321 37945 ft 463 kts 236°
2026-05-04 15:54 52.00169 23.65499 37940 ft 466 kts 223°
2026-05-04 15:54 51.94950 23.59232 37940 ft 467 kts 214°
2026-05-04 15:55 51.89519 23.53577 37940 ft 465 kts 214°
2026-05-04 15:55 51.84088 23.47894 37935 ft 463 kts 214°
2026-05-04 15:56 51.78717 23.42227 37937 ft 464 kts 214°
2026-05-04 15:56 51.73310 23.36521 37937 ft 464 kts 214°
2026-05-04 15:57 51.67874 23.30800 37942 ft 466 kts 214°
2026-05-04 15:57 51.62437 23.25100 37937 ft 467 kts 214°
2026-05-04 15:58 51.57012 23.19428 37947 ft 468 kts 214°
2026-05-04 15:58 51.51545 23.13727 37948 ft 469 kts 214°
2026-05-04 15:59 51.46051 23.08015 37946 ft 470 kts 214°
2026-05-04 15:59 51.40456 23.02549 37945 ft 472 kts 207°
2026-05-04 16:00 51.34299 22.98830 37954 ft 474 kts 196°
2026-05-04 16:00 51.27868 22.96625 37969 ft 475 kts 193°
2026-05-04 16:01 51.21372 22.94533 37966 ft 476 kts 193°
2026-05-04 16:01 51.14880 22.92401 37960 ft 476 kts 193°
2026-05-04 16:02 51.08419 22.90257 37961 ft 477 kts 193°
2026-05-04 16:03 50.98662 22.87005 37960 ft 477 kts 193°
2026-05-04 16:03 50.92158 22.84850 37957 ft 478 kts 193°
2026-05-04 16:04 50.85640 22.82690 37964 ft 478 kts 193°
2026-05-04 16:04 50.75855 22.79467 37960 ft 479 kts 193°
2026-05-04 16:05 50.69370 22.77336 37965 ft 479 kts 192°
2026-05-04 16:06 50.59547 22.74123 37967 ft 480 kts 192°
2026-05-04 16:07 50.46473 22.69869 37966 ft 481 kts 193°
2026-05-04 16:08 50.33350 22.65620 37965 ft 481 kts 192°
2026-05-04 16:09 50.16967 22.60343 37978 ft 482 kts 192°
2026-05-04 16:10 50.03808 22.56140 37976 ft 484 kts 192°
2026-05-04 16:11 49.90574 22.51934 37985 ft 485 kts 192°
2026-05-04 16:12 49.70860 22.45710 37995 ft 485 kts 192°
2026-05-04 16:13 49.57597 22.41548 38008 ft 486 kts 192°
2026-05-04 16:14 49.44352 22.37422 38019 ft 487 kts 192°
2026-05-04 16:16 49.27749 22.32275 38035 ft 488 kts 192°
2026-05-04 16:17 49.12255 22.24156 38024 ft 482 kts 223°
2026-05-04 16:18 49.05836 22.12477 38042 ft 481 kts 234°
2026-05-04 16:18 49.03769 22.08467 38048 ft 482 kts 233°
2026-05-04 16:19 48.93166 21.88574 38015 ft 482 kts 230°
2026-05-04 16:20 48.84200 21.82524 38039 ft 487 kts 180°
2026-05-04 16:20 48.78604 21.83537 38052 ft 488 kts 171°
2026-05-04 16:22 48.61731 21.87379 38040 ft 492 kts 172°
2026-05-04 16:23 48.41437 21.91616 38042 ft 489 kts 171°
2026-05-04 16:24 48.29284 22.00139 38063 ft 485 kts 142°
2026-05-04 16:25 48.23898 22.06263 38046 ft 485 kts 142°
2026-05-04 16:26 48.04946 22.27338 38062 ft 487 kts 143°
2026-05-04 16:28 47.91269 22.42328 38062 ft 488 kts 143°
2026-05-04 16:29 47.72108 22.63169 38052 ft 488 kts 143°
2026-05-04 16:31 47.58412 22.77947 38062 ft 487 kts 143°
2026-05-04 16:32 47.41981 22.95548 38056 ft 486 kts 143°
2026-05-04 16:33 47.31057 23.07175 38072 ft 485 kts 143°
2026-05-04 16:34 47.22854 23.15935 38064 ft 485 kts 141°
2026-05-04 16:35 47.07100 23.34483 37659 ft 484 kts 140°
2026-05-04 16:36 47.04456 23.37562 37236 ft 485 kts 140°
2026-05-04 16:36 46.99165 23.43693 37070 ft 486 kts 140°
2026-05-04 16:37 46.91161 23.52926 37063 ft 489 kts 140°
2026-05-04 16:38 46.80478 23.65207 37045 ft 489 kts 140°
2026-05-04 16:39 46.67100 23.80500 37056 ft 489 kts 141°
2026-05-04 16:40 46.56381 23.92684 37024 ft 488 kts 140°
2026-05-04 16:41 46.42983 24.07865 37043 ft 489 kts 140°
2026-05-04 16:43 46.29837 24.23512 37020 ft 491 kts 139°
2026-05-04 16:43 46.21917 24.32868 37036 ft 491 kts 140°
2026-05-04 16:45 46.05985 24.51535 37049 ft 491 kts 140°
2026-05-04 16:46 45.92818 24.66861 37036 ft 491 kts 140°
2026-05-04 16:47 45.82185 24.79168 37058 ft 490 kts 141°
2026-05-04 16:48 45.71589 24.91369 37057 ft 489 kts 141°
2026-05-04 16:49 45.60962 25.03545 37054 ft 489 kts 141°
2026-05-04 16:50 45.50334 25.15670 37062 ft 499 kts 141°
2026-05-04 16:51 45.42200 25.24906 37071 ft 493 kts 141°
2026-05-04 16:52 45.31499 25.36991 37066 ft 492 kts 142°
2026-05-04 16:53 45.23487 25.46004 37063 ft 490 kts 142°
2026-05-04 16:54 45.12818 25.57957 37065 ft 489 kts 142°
2026-05-04 16:55 44.96769 25.75821 37050 ft 490 kts 142°
2026-05-04 16:56 44.83321 25.90695 37051 ft 491 kts 142°
2026-05-04 16:57 44.75267 25.99559 37050 ft 491 kts 142°
2026-05-04 16:58 44.64485 26.11374 37049 ft 490 kts 142°
2026-05-04 17:00 44.48399 26.28899 37049 ft 488 kts 142°
2026-05-04 17:01 44.35008 26.43390 37050 ft 487 kts 142°
2026-05-04 17:02 44.24244 26.54977 37048 ft 488 kts 142°
2026-05-04 17:03 44.16195 26.63605 37043 ft 488 kts 142°
2026-05-04 17:03 44.08107 26.72248 37042 ft 488 kts 142°
2026-05-04 17:04 43.97331 26.83712 37039 ft 489 kts 142°
2026-05-04 17:05 43.86516 26.95162 37041 ft 488 kts 142°
2026-05-04 17:06 43.78439 27.03677 37050 ft 488 kts 142°
2026-05-04 17:07 43.72113 27.10328 37039 ft 488 kts 142°
2026-05-04 17:07 43.64907 27.17880 37042 ft 488 kts 142°
2026-05-04 17:08 43.56810 27.26341 37037 ft 488 kts 142°
2026-05-04 17:09 43.51387 27.31994 37042 ft 488 kts 142°
2026-05-04 17:09 43.46876 27.36683 37041 ft 489 kts 142°
2026-05-04 17:10 43.33286 27.50753 37043 ft 490 kts 141°
2026-05-04 17:11 43.27835 27.56375 37049 ft 490 kts 141°
2026-05-04 17:12 43.19670 27.64769 37057 ft 490 kts 141°
2026-05-04 17:13 43.06039 27.78726 37056 ft 490 kts 141°
2026-05-04 17:14 42.97871 27.87048 36432 ft 487 kts 141°
2026-05-04 17:14 42.95179 27.89783 36194 ft 481 kts 141°
2026-05-04 17:14 42.89984 27.95055 35674 ft 474 kts 141°
2026-05-04 17:15 42.87489 27.97583 35443 ft 470 kts 141°
2026-05-04 17:15 42.82277 28.02858 34965 ft 465 kts 140°
2026-05-04 17:16 42.77128 28.08058 34480 ft 461 kts 140°
2026-05-04 17:16 42.69455 28.15787 33739 ft 457 kts 140°
2026-05-04 17:17 42.67125 28.18129 33464 ft 456 kts 140°
2026-05-04 17:17 42.59495 28.25783 32680 ft 452 kts 139°
2026-05-04 17:18 42.56965 28.28316 32384 ft 452 kts 139°
2026-05-04 17:18 42.51908 28.33371 31754 ft 450 kts 139°
2026-05-04 17:19 42.46766 28.38511 30457 ft 477 kts 139°
2026-05-04 17:19 42.41309 28.43947 29617 ft 490 kts 139°
2026-05-04 17:20 42.35803 28.49403 28311 ft 486 kts 139°
2026-05-04 17:20 42.30408 28.54736 27042 ft 474 kts 139°
2026-05-04 17:20 42.27787 28.57327 26433 ft 469 kts 139°
2026-05-04 17:21 42.22563 28.62490 25205 ft 461 kts 139°
2026-05-04 17:21 42.17411 28.67573 24009 ft 454 kts 139°
2026-05-04 17:22 42.14867 28.70079 23505 ft 449 kts 139°
2026-05-04 17:22 42.12380 28.72521 23288 ft 436 kts 139°
2026-05-04 17:23 42.04407 28.76940 22527 ft 419 kts 176°
2026-05-04 17:23 42.01481 28.76960 22198 ft 422 kts 176°
2026-05-04 17:23 41.95591 28.77112 21482 ft 427 kts 175°
2026-05-04 17:24 41.92630 28.77223 21125 ft 424 kts 175°
2026-05-04 17:24 41.83894 28.76659 20075 ft 422 kts 196°
2026-05-04 17:25 41.81161 28.75151 19827 ft 418 kts 207°
2026-05-04 17:25 41.76444 28.70799 19228 ft 412 kts 220°
2026-05-04 17:26 41.71960 28.66015 18588 ft 410 kts 219°
2026-05-04 17:26 41.65658 28.58512 17687 ft 401 kts 232°
2026-05-04 17:27 41.62334 28.52575 17049 ft 396 kts 236°
2026-05-04 17:27 41.59087 28.46676 16264 ft 391 kts 236°
2026-05-04 17:28 41.55332 28.41452 15654 ft 386 kts 220°
2026-05-04 17:29 41.49111 28.34744 15443 ft 386 kts 220°
2026-05-04 17:29 41.42842 28.27934 15235 ft 387 kts 220°
2026-05-04 17:30 41.36614 28.21157 15022 ft 385 kts 221°
2026-05-04 17:31 41.32475 28.16659 14878 ft 383 kts 221°
2026-05-04 17:31 41.26315 28.09981 14589 ft 378 kts 220°
2026-05-04 17:32 41.22249 28.05581 13819 ft 375 kts 221°
2026-05-04 17:33 41.15998 27.99486 12558 ft 369 kts 209°
2026-05-04 17:33 41.13738 27.98046 12223 ft 359 kts 197°
2026-05-04 17:34 41.07417 28.00487 11645 ft 307 kts 130°
2026-05-04 17:34 41.05996 28.02577 11162 ft 304 kts 120°
2026-05-04 17:35 41.03973 28.09906 10431 ft 272 kts 98°
2026-05-04 17:35 41.02945 28.14634 9890 ft 267 kts 98°
2026-05-04 17:35 41.02429 28.16982 9418 ft 263 kts 98°
2026-05-04 17:36 41.01914 28.19308 8757 ft 263 kts 98°
2026-05-04 17:36 41.01397 28.21633 8204 ft 260 kts 99°
2026-05-04 17:36 41.00888 28.23900 7788 ft 252 kts 99°
2026-05-04 17:36 41.00395 28.26092 7391 ft 244 kts 99°
2026-05-04 17:37 40.99922 28.28196 7015 ft 237 kts 99°
2026-05-04 17:37 40.99459 28.30259 6654 ft 229 kts 99°
2026-05-04 17:37 40.99007 28.32264 6253 ft 224 kts 99°
2026-05-04 17:37 40.98564 28.34230 5831 ft 220 kts 99°
2026-05-04 17:38 40.98132 28.36136 5458 ft 213 kts 98°
2026-05-04 17:38 40.97707 28.37992 5078 ft 210 kts 101°
2026-05-04 17:38 40.97064 28.39758 5046 ft 217 kts 111°
2026-05-04 17:38 40.96304 28.41487 5003 ft 215 kts 112°
2026-05-04 17:39 40.94813 28.44881 5057 ft 217 kts 111°
2026-05-04 17:39 40.94065 28.46610 5008 ft 215 kts 111°
2026-05-04 17:39 40.93325 28.48334 5003 ft 218 kts 111°
2026-05-04 17:40 40.92565 28.50120 5021 ft 229 kts 112°
2026-05-04 17:40 40.91766 28.52007 5020 ft 246 kts 113°
2026-05-04 17:40 40.90919 28.54002 5010 ft 251 kts 113°
2026-05-04 17:40 40.90048 28.56055 5020 ft 259 kts 113°
2026-05-04 17:41 40.89359 28.58217 4995 ft 251 kts 91°
2026-05-04 17:41 40.89530 28.60429 5007 ft 237 kts 66°
2026-05-04 17:41 40.90062 28.62454 5008 ft 229 kts 63°
2026-05-04 17:41 40.90569 28.64412 4999 ft 222 kts 63°
2026-05-04 17:42 40.91073 28.66339 4994 ft 221 kts 63°
2026-05-04 17:42 40.91603 28.68246 4993 ft 217 kts 56°
2026-05-04 17:42 40.92592 28.69620 5001 ft 201 kts 26°
2026-05-04 17:42 40.93797 28.70495 4999 ft 194 kts 25°
2026-05-04 17:43 40.94930 28.71342 4978 ft 179 kts 25°
2026-05-04 17:43 40.95975 28.72120 4976 ft 167 kts 24°
2026-05-04 17:43 40.96998 28.72874 5000 ft 173 kts 23°
2026-05-04 17:43 40.98141 28.73245 5005 ft 169 kts
2026-05-04 17:44 40.99342 28.73295 5015 ft 176 kts
2026-05-04 17:44 41.00589 28.73325 5013 ft 182 kts
2026-05-04 17:44 41.01866 28.73322 5007 ft 184 kts 359°
2026-05-04 17:44 41.03166 28.73304 4728 ft 189 kts 359°
2026-05-04 17:45 41.04471 28.73278 4469 ft 186 kts 359°
2026-05-04 17:45 41.05759 28.73249 4210 ft 183 kts 359°
2026-05-04 17:45 41.07001 28.73221 3970 ft 179 kts 359°
2026-05-04 17:45 41.08231 28.73193 3732 ft 176 kts 359°
2026-05-04 17:46 41.09439 28.73165 3515 ft 169 kts 359°
2026-05-04 17:46 41.10581 28.73137 3331 ft 159 kts 359°
2026-05-04 17:46 41.11663 28.73112 3106 ft 152 kts 359°
2026-05-04 17:46 41.12694 28.73088 2890 ft 143 kts 359°
2026-05-04 17:47 41.13650 28.73066 2682 ft 130 kts
2026-05-04 17:47 41.14540 28.73048 2560 ft 129 kts
2026-05-04 17:47 41.15436 28.73026 2427 ft 127 kts
2026-05-04 17:47 41.16322 28.73004 2218 ft 126 kts
2026-05-04 17:48 41.17189 28.72986 2090 ft 127 kts
2026-05-04 17:48 41.18081 28.72963 1887 ft 128 kts
2026-05-04 17:48 41.18970 28.72945 1725 ft 127 kts
2026-05-04 17:48 41.19855 28.72923 1552 ft 128 kts
2026-05-04 17:49 41.20761 28.72903 1389 ft 132 kts
2026-05-04 17:49 41.21686 28.72881 1200 ft 134 kts 359°
2026-05-04 17:49 41.22614 28.72861 1020 ft 133 kts 358°
2026-05-04 17:49 41.23545 28.72839 855 ft 133 kts 358°
2026-05-04 17:50 41.24449 28.72826 728 ft 129 kts 356°
2026-05-04 17:50 41.25345 28.72796 567 ft 129 kts 356°
2026-05-04 17:50 41.26241 28.72777 403 ft 129 kts 356°
2026-05-04 17:50 41.27125 28.72752 336 ft 119 kts 359°
2026-05-04 17:51 41.27804 28.72737 334 ft 75 kts 359°
2026-05-04 17:51 41.28172 28.72733 336 ft 42 kts
2026-05-04 17:51 41.28360 28.72803 336 ft 14 kts 26°
2026-05-04 17:51 41.28439 28.72860 335 ft 11 kts 32°
2026-05-04 17:52 41.28468 28.72925 334 ft 6 kts 108°
2026-05-04 17:52 41.28408 28.72952 336 ft 16 kts 176°
2026-05-04 17:52 41.28306 28.72957 338 ft 15 kts 179°
2026-05-04 17:52 41.28212 28.72958 333 ft 13 kts 179°
2026-05-04 17:53 41.28118 28.72960 336 ft 14 kts 179°
2026-05-04 17:53 41.28020 28.72962 337 ft 14 kts 179°
2026-05-04 17:53 41.27918 28.72965 334 ft 15 kts 179°
2026-05-04 17:53 41.27812 28.72968 337 ft 16 kts 179°
2026-05-04 17:54 41.27701 28.72970 337 ft 16 kts 179°
2026-05-04 17:54 41.27587 28.72972 334 ft 17 kts 179°
2026-05-04 17:54 41.27470 28.72975 334 ft 17 kts 179°
2026-05-04 17:54 41.27350 28.72978 336 ft 18 kts 179°
2026-05-04 17:55 41.27226 28.72981 334 ft 18 kts 179°
2026-05-04 17:55 41.27103 28.72984 337 ft 13 kts 179°
2026-05-04 17:55 41.27049 28.73024 334 ft 10 kts 118°
2026-05-04 17:55 41.27042 28.73123 339 ft 16 kts 89°
2026-05-04 17:56 41.27043 28.73260 339 ft 12 kts 89°
2026-05-04 17:56 41.27020 28.73314 333 ft 10 kts 147°
2026-05-04 17:56 41.26909 28.73330 336 ft 13 kts 179°
2026-05-04 17:56 41.26820 28.73332 336 ft 13 kts 179°
2026-05-04 17:57 41.26739 28.73334 335 ft 7 kts 178°
2026-05-04 17:57 41.26718 28.73344 335 ft 5 kts 144°
2026-05-04 17:57 41.26706 28.73387 334 ft 5 kts 99°
2026-05-04 17:57 41.26704 28.73413 336 ft 3 kts 95°
2026-05-04 17:58 41.26704 28.73435 336 ft 0 kts 89°
2026-05-04 17:58 41.26704 28.73443 336 ft 1 kts 89°
2026-05-04 17:58 41.26704 28.73446 336 ft 0 kts 89°